Date String (YYYY-MM-DD hh:mm:ss) UTC,Instrument flags,absolute air pressure of the measurement (hPa),sample flow rate (lpm),inlet stack bypass flow (lpm),air temperature of the measurement (°C),ambient temperature measured by the external sensor (°C),aerosol sample conditioner tube jacket temperature (°C),OPC LED temperature (°C),internal box temperature (°C),relative humidity of the measurement (%),span deviation,mass concentration of particles derived from Lorenz-Mie calculation of OPC scattering (μg/m³),mass concentration of particles derived from Lorenz-Mie calculation of OPC scattering (μg/m³),mass concentration of particles derived from Lorenz-Mie calculation of OPC scattering (μg/m³)
DateTimeUTC,F1_M11,P_M11,Q1_M11,Q2_M11,T1_M11,T2_M11,T3_M11,T4_M11,T5_M11,U1_M11,ZSPAN_M11,X2_M11,X0_M11,X1_M11
2024-01-08 21:00:00,SystemResetWarning,0822.1,5.00,000.00,020.9,020.3,000.0,029.2,022.2,9.2,0000.0,0001.50,0005.15,0000.99
2024-01-08 21:01:00,SystemResetWarning,0822.1,5.00,000.00,020.9,020.3,000.0,029.2,022.2,9.2,0000.0,0001.47,0004.55,0000.96
2024-01-08 21:02:00,SystemResetWarning,0822.1,4.99,000.00,020.9,020.3,000.0,029.2,022.2,9.2,0000.0,0001.44,0003.53,0000.93
2024-01-08 21:03:00,SystemResetWarning,0822.1,5.00,000.00,020.9,020.3,000.0,029.2,022.1,9.2,0000.0,0001.40,0004.13,0000.90
2024-01-08 21:04:00,SystemResetWarning,0822.1,5.00,000.00,020.9,020.3,000.0,029.2,022.1,9.2,0000.0,0001.35,0003.93,0000.88
2024-01-08 21:05:00,SystemResetWarning,0822.1,5.00,000.00,020.9,020.2,000.0,029.2,022.1,9.3,0000.0,0001.35,0003.98,0000.85
2024-01-08 21:06:00,SystemResetWarning,0822.1,5.01,000.00,020.9,020.2,000.0,029.2,022.1,9.2,0000.0,0001.35,0004.09,0000.83
2024-01-08 21:07:00,SystemResetWarning,0822.1,5.00,000.00,020.9,020.2,000.0,029.2,022.1,9.3,0000.0,0001.32,0004.05,0000.80
2024-01-08 21:08:00,SystemResetWarning,0822.0,5.00,000.00,020.9,020.2,000.0,029.2,022.0,9.2,0000.0,0001.35,0004.75,0000.79
2024-01-08 21:09:00,SystemResetWarning,0822.0,5.00,000.00,020.9,020.2,000.0,029.2,022.0,9.2,0000.0,0001.36,0004.93,0000.76
2024-01-08 21:10:00,SystemResetWarning,0822.0,5.00,000.00,020.9,020.1,000.0,029.2,022.0,9.1,0000.0,0001.32,0004.89,0000.73
2024-01-08 21:11:00,SystemResetWarning,0822.0,5.00,000.00,020.9,020.1,000.0,029.2,022.0,9.1,0000.0,0001.28,0004.93,0000.70
2024-01-08 21:12:00,SystemResetWarning,0822.0,5.00,000.00,020.9,020.1,000.0,029.2,022.0,9.1,0000.0,0001.26,0004.93,0000.69
2024-01-08 21:13:00,SystemResetWarning,0822.0,5.00,000.00,020.8,020.1,000.0,029.2,021.9,9.1,0000.0,0001.26,0004.75,0000.68
2024-01-08 21:14:00,SystemResetWarning,0822.0,5.00,000.00,020.8,020.1,000.0,029.2,021.9,9.0,0000.0,0001.31,0003.90,0000.68
2024-01-08 21:15:00,SystemResetWarning,0822.0,4.99,000.00,020.8,020.1,000.0,029.2,021.9,9.1,0000.0,0001.25,0003.97,0000.66
2024-01-08 21:16:00,SystemResetWarning,0822.0,4.99,000.00,020.8,020.0,000.0,029.1,021.9,9.1,0000.0,0001.25,0003.97,0000.65
2024-01-08 21:17:00,SystemResetWarning,0821.9,5.00,000.00,020.8,020.0,000.0,029.1,021.9,9.2,0000.0,0001.23,0003.90,0000.66
2024-01-08 21:18:00,SystemResetWarning,0822.0,5.01,000.00,020.8,020.0,000.0,029.1,021.9,9.2,0000.0,0001.24,0003.95,0000.66
2024-01-08 21:19:00,SystemResetWarning,0821.9,5.00,000.00,020.8,020.0,000.0,029.1,021.9,9.0,0000.0,0001.23,0003.65,0000.66
2024-01-08 21:20:00,SystemResetWarning,0822.0,5.00,000.00,020.8,020.0,000.0,029.1,021.8,8.9,0000.0,0001.18,0003.10,0000.66
2024-01-08 21:21:00,SystemResetWarning,0821.9,5.00,000.00,020.8,019.9,000.0,029.1,021.8,8.9,0000.0,0001.15,0003.74,0000.67
2024-01-08 21:22:00,SystemResetWarning,0822.0,4.99,000.00,020.7,019.9,000.0,029.1,021.8,8.9,0000.0,0001.17,0004.74,0000.67
2024-01-08 21:23:00,SystemResetWarning,0822.0,5.00,000.00,020.7,019.9,000.0,029.1,021.8,9.0,0000.0,0001.20,0005.42,0000.67
2024-01-08 21:24:00,SystemResetWarning,0822.0,5.00,000.00,020.7,019.9,000.0,029.1,021.8,9.1,0000.0,0001.19,0005.48,0000.68
2024-01-08 21:25:00,SystemResetWarning,0822.0,4.99,000.00,020.7,019.9,000.0,029.1,021.8,9.1,0000.0,0001.14,0005.03,0000.68
2024-01-08 21:26:00,SystemResetWarning,0822.0,5.00,000.00,020.7,019.9,000.0,029.1,021.8,9.0,0000.0,0001.15,0004.86,0000.68
2024-01-08 21:27:00,SystemResetWarning,0822.0,5.00,000.00,020.7,019.8,000.0,029.1,021.8,8.8,0000.0,0001.16,0004.88,0000.69
2024-01-08 21:28:00,SystemResetWarning,0822.0,5.01,000.00,020.7,019.8,000.0,029.0,021.7,8.8,0000.0,0001.17,0004.88,0000.68
2024-01-08 21:29:00,SystemResetWarning,0822.0,5.00,000.00,020.7,019.8,000.0,029.0,021.7,8.8,0000.0,0001.14,0004.78,0000.68
2024-01-08 21:30:00,SystemResetWarning,0822.0,4.99,000.00,020.7,019.8,000.0,029.0,021.7,8.8,0000.0,0001.13,0004.71,0000.68
2024-01-08 21:31:00,SystemResetWarning,0822.0,4.99,000.00,020.6,019.8,000.0,029.0,021.7,8.8,0000.0,0001.14,0004.76,0000.68
2024-01-08 21:32:00,SystemResetWarning,0822.0,5.00,000.00,020.6,019.8,000.0,029.0,021.7,8.8,0000.0,0001.16,0003.99,0000.68
2024-01-08 21:33:00,SystemResetWarning,0822.0,5.01,000.00,020.6,019.7,000.0,029.0,021.7,8.9,0000.0,0001.12,0002.90,0000.67
2024-01-08 21:34:00,SystemResetWarning,0822.0,5.00,000.00,020.6,019.7,000.0,029.0,021.7,8.8,0000.0,0001.09,0002.10,0000.66
2024-01-08 21:35:00,SystemResetWarning,0822.1,5.00,000.00,020.6,019.7,000.0,029.0,021.6,8.7,0000.0,0001.10,0002.19,0000.64
2024-01-08 21:36:00,SystemResetWarning,0822.0,4.99,000.00,020.6,019.7,000.0,029.0,021.6,8.7,0000.0,0001.08,0002.12,0000.63
2024-01-08 21:37:00,SystemResetWarning,0822.0,4.99,000.00,020.6,019.7,000.0,028.9,021.6,8.6,0000.0,0001.05,0002.02,0000.62
2024-01-08 21:38:00,SystemResetWarning,0822.0,5.00,000.00,020.6,019.6,000.0,028.9,021.6,8.4,0000.0,0001.03,0003.03,0000.62
2024-01-08 21:39:00,SystemResetWarning,0822.0,5.00,000.00,020.6,019.6,000.0,028.9,021.6,8.2,0000.0,0000.96,0002.99,0000.60
2024-01-08 21:40:00,SystemResetWarning,0822.1,5.01,000.00,020.5,019.6,000.0,028.9,021.5,8.2,0000.0,0000.95,0003.05,0000.60
2024-01-08 21:41:00,SystemResetWarning,0822.0,5.00,000.00,020.5,019.6,000.0,028.9,021.5,8.4,0000.0,0000.94,0003.08,0000.59
2024-01-08 21:42:00,SystemResetWarning,0822.0,5.01,000.00,020.5,019.6,000.0,028.9,021.5,8.4,0000.0,0000.91,0003.01,0000.57
2024-01-08 21:43:00,SystemResetWarning,0822.0,5.00,000.00,020.5,019.5,000.0,028.9,021.5,8.4,0000.0,0000.87,0002.91,0000.57
2024-01-08 21:44:00,SystemResetWarning,0822.0,4.99,000.00,020.5,019.5,000.0,028.9,021.5,8.5,0000.0,0000.91,0003.00,0000.57
2024-01-08 21:45:00,SystemResetWarning,0822.0,5.00,000.00,020.5,019.5,000.0,028.8,021.4,8.5,0000.0,0000.89,0002.94,0000.56
2024-01-08 21:46:00,SystemResetWarning,0822.1,4.99,000.00,020.4,019.5,000.0,028.8,021.4,8.5,0000.0,0000.89,0002.84,0000.57
2024-01-08 21:47:00,SystemResetWarning,0822.1,4.99,000.00,020.4,019.5,000.0,028.8,021.4,8.6,0000.0,0000.92,0002.94,0000.58
2024-01-08 21:48:00,SystemResetWarning,0822.2,5.01,000.00,020.4,019.5,000.0,028.8,021.4,8.5,0000.0,0000.94,0003.00,0000.58
2024-01-08 21:49:00,SystemResetWarning,0822.2,5.01,000.00,020.4,019.4,000.0,028.8,021.4,8.5,0000.0,0000.94,0001.88,0000.57
2024-01-08 21:50:00,SystemResetWarning,0822.2,5.01,000.00,020.4,019.4,000.0,028.8,021.4,8.5,0000.0,0000.97,0001.88,0000.58
2024-01-08 21:51:00,SystemResetWarning,0822.2,5.00,000.00,020.3,019.4,000.0,028.7,021.4,8.5,0000.0,0000.96,0001.83,0000.58
2024-01-08 21:52:00,SystemResetWarning,0822.2,4.99,000.00,020.3,019.4,000.0,028.7,021.4,8.4,0000.0,0000.95,0001.85,0000.57
2024-01-08 21:53:00,SystemResetWarning,0822.2,5.00,000.00,020.3,019.4,000.0,028.7,021.3,8.4,0000.0,0001.01,0002.06,0000.57
2024-01-08 21:54:00,SystemResetWarning,0822.2,5.01,000.00,020.3,019.3,000.0,028.7,021.3,8.4,0000.0,0001.01,0002.09,0000.57
2024-01-08 21:55:00,SystemResetWarning,0822.3,5.01,000.00,020.3,019.3,000.0,028.7,021.3,8.3,0000.0,0000.99,0002.05,0000.57
2024-01-08 21:56:00,SystemResetWarning,0822.3,5.00,000.00,020.3,019.3,000.0,028.7,021.3,8.2,0000.0,0001.00,0002.06,0000.57
2024-01-08 21:57:00,SystemResetWarning,0822.3,5.01,000.00,020.3,019.3,000.0,028.7,021.3,8.2,0000.0,0001.00,0002.05,0000.56
2024-01-08 21:58:00,SystemResetWarning,0822.3,5.00,000.00,020.3,019.3,000.0,028.7,021.3,8.3,0000.0,0000.97,0001.99,0000.55
2024-01-08 21:59:00,SystemResetWarning,0822.4,4.99,000.00,020.3,019.3,000.0,028.6,021.3,8.3,0000.0,0000.93,0001.94,0000.55
